RH
13 12 12 12 11 11 11 11 10 10 9 9 9 8 8 8 8 8 8 8 7 7 7 7 6 6 6 5 5 5 5 5 4 4 4 4 4 4 4 3 4 4 4 4 4 4 4 4 4 4 4 4 3 3 4 3 4 4 4 4 5 4 5
12 12 12 11 11 11 11 11 10 10 10 9 9 9 8 8 8 7 7 7 7 7 6 6 6 5 5 5 5 5 4 4 4 4 4 4 4 4 4 3 3 3 3 4 4 4 4 4 4 4 4 4 3 3 3 3 3 3 3 3 4 4 4
12 12 12 11 11 11 11 11 11 10 10 9 9 8 8 8 7 7 6 6 6 5 5 5 5 4 5 4 4 4 4 4 4 4 4 4 4 4 4 4 3 3 4 4 4 4 3 4 4 4 3 3 3 3 3 4 3 3 3 3 3 4 4
13 12 12 11 11 11 11 11 10 10 9 8 8 8 7 7 6 6 6 5 5 5 5 5 4 4 4 4 4 4 4 4 4 4 4 4 4 4 4 4 4 4 4 4 4 4 4 4 4 4 3 3 3 3 3 3 3 3 3 3 3 3 3
14 13 12 12 11 11 11 11 10 9 9 8 8 7 7 7 6 6 6 5 5 5 5 5 4 4 4 4 4 4 4 5 5 5 5 4 4 4 4 4 4 4 4 4 4 4 4 4 4 3 3 3 3 3 3 3 3 3 3 3 3 3 3
14 13 13 13 13 12 12 10 10 9 8 8 7 7 6 6 6 6 6 6 6 5 5 5 5 5 5 5 5 5 5 6 6 5 5 5 5 5 5 5 5 5 5 4 4 4 4 4 4 4 3 3 3 3 3 3 3 4 4 3 3 3 3
15 14 14 14 13 12 11 10 9 8 8 7 7 6 6 6 6 6 6 6 6 6 6 5 5 5 6 6 6 6 6 6 6 6 6 5 6 5 5 5 5 5 5 5 5 5 5 4 4 4 4 4 4 3 3 4 4 4 4 3 3 3 3
14 14 14 13 12 11 10 9 8 7 7 6 6 6 6 6 6 7 7 7 7 7 7 6 7 7 7 7 7 7 7 7 6 6 6 6 6 6 6 5 5 5 5 5 5 5 5 5 5 5 5 4 4 4 4 4 4 4 4 3 3 3 3
13 13 12 11 10 9 9 8 7 7 7 6 6 6 6 7 7 7 8 9 9 9 9 8 8 8 8 8 8 7 7 7 7 7 7 7 6 6 7 6 6 6 5 5 6 5 5 6 6 5 5 5 4 4 5 4 4 4 4 3 4 3 3
12 11 11 10 9 9 8 8 7 7 6 6 6 7 7 7 8 9 10 12 12 11 10 10 9 9 9 8 8 8 8 7 7 8 7 8 8 8 7 7 7 6 6 6 6 6 6 6 6 6 5 5 5 5 5 5 4 4 4 4 4 4 4
11 11 10 10 9 9 8 7 7 7 6 6 7 7 8 9 11 13 14 14 14 13 12 11 10 9 9 10 9 9 9 9 9 9 9 9 9 9 9 8 8 7 7 7 6 6 6 6 6 6 6 6 6 5 5 5 5 5 5 5 5 4 4
11 10 10 9 9 8 8 7 7 7 6 7 8 9 10 12 14 16 17 16 14 13 13 12 12 11 11 11 10 10 10 10 9 9 9 9 9 9 9 8 8 7 7 7 7 6 6 7 6 6 6 6 5 6 6 6 5 5 5 5 5 5 5
10 10 9 9 8 8 7 7 7 7 7 8 10 11 13 14 17 18 17 17 15 15 15 14 14 13 12 12 11 10 10 9 9 9 8 8 8 8 8 8 7 7 6 6 7 7 6 6 6 6 6 6 6 6 6 6 6 5 5 5 6 6 5
10 9 9 8 8 7 7 7 7 8 9 11 13 15 15 16 18 18 17 17 16 16 16 16 14 14 13 12 11 10 9 9 9 8 7 7 7 7 6 6 6 5 6 6 6 6 6 6 6 6 5 5 5 6 6 6 6 5 6 6 5 6 5
10 9 9 8 8 7 7 8 8 10 12 15 17 17 18 18 18 18 18 17 17 16 16 15 14 13 12 11 10 9 9 8 8 7 7 7 7 6 6 5 5 5 5 5 5 5 6 6 5 5 5 5 5 5 5 5 5 5 6 5 5 5 5
10 9 8 8 7 8 8 9 11 14 16 19 20 19 18 18 18 18 18 18 17 16 15 13 12 11 11 10 10 9 8 8 7 7 7 7 6 6 6 5 4 5 5 5 5 5 5 6 5 5 5 5 5 4 4 4 4 5 5 5 5 5 4
9 8 8 8 8 8 10 12 15 18 20 21 21 19 18 17 17 18 18 17 16 14 13 12 11 10 9 9 9 8 7 7 6 6 7 7 6 6 5 5 4 5 5 5 5 5 5 5 5 5 5 5 5 4 4 4 4 4 4 4 4 4 4
8 8 8 8 9 11 14 17 19 20 21 20 19 17 16 17 17 18 17 16 15 13 11 10 9 8 8 8 7 7 6 6 6 6 6 6 6 5 5 5 4 4 4 5 4 4 5 4 5 5 4 5 5 4 4 4 3 4 4 4 4 4 3
8 8 8 10 12 15 18 20 20 20 19 18 17 16 16 16 17 17 16 15 13 11 9 8 7 7 6 6 6 6 6 6 5 6 6 6 6 5 5 5 5 4 4 5 5 4 4 4 5 5 4 4 4 4 4 4 4 4 4 4 4 3 3
8 9 11 13 16 19 20 20 19 18 17 17 17 16 15 16 15 15 14 13 11 9 8 7 6 6 6 6 6 6 6 5 5 6 7 6 6 6 5 5 5 5 4 4 5 5 5 5 4 5 5 4 4 4 4 4 4 4 4 4 4 4 4
10 12 14 17 19 19 19 17 17 17 17 17 17 16 14 13 13 12 11 10 9 8 7 6 6 6 6 6 6 6 6 6 6 6 6 6 6 6 5 5 5 5 5 5 5 5 5 5 5 5 4 4 4 4 4 4 4 4 4 4 4 4 4
13 15 17 18 19 18 17 16 15 16 17 16 15 14 12 11 10 9 8 8 8 7 6 6 6 6 6 6 6 6 6 6 6 6 6 7 7 6 6 5 5 5 5 5 5 5 5 5 5 5 5 4 4 4 4 4 4 4 4 4 4 4 4
16 17 18 18 18 17 15 14 15 15 15 14 12 11 10 9 8 7 7 7 7 7 6 6 6 6 6 6 6 6 6 6 6 6 6 6 6 6 6 6 5 5 5 5 5 5 5 5 5 5 5 4 4 5 4 4 4 4 4 4 4 4 4
16 17 18 18 17 16 14 13 13 13 12 11 10 9 8 8 7 6 7 7 7 7 7 6 7 7 6 6 6 6 6 6 6 6 7 7 6 6 6 6 6 6 5 5 5 5 5 5 5 5 5 5 5 5 5 4 4 4 4 4 4 4 4
16 17 17 17 16 15 13 11 10 10 9 8 8 8 7 7 6 6 6 7 7 7 7 7 7 7 6 6 6 6 6 6 6 6 6 6 6 6 6 6 6 6 6 5 5 5 5 5 5 5 5 5 5 5 5 5 5 4 4 4 4 4 4
16 15 15 15 14 12 11 10 8 8 7 7 7 7 7 7 7 7 7 7 7 7 7 7 7 7 7 6 6 7 7 6 6 6 6 6 6 6 6 6 6 6 6 6 5 5 5 5 5 5 5 5 5 5 5 5 4 5 4 4 4 4 4
13 13 12 11 11 10 9 8 7 6 6 7 7 7 7 7 7 7 7 7 7 7 7 7 7 7 6 7 7 7 6 6 6 6 6 6 6 6 6 6 6 6 6 6 6 6 5 5 5 5 5 5 5 5 5 5 5 4 4 4 4 4 4
11 10 10 9 8 8 7 7 7 7 6 7 7 7 7 7 7 7 7 7 7 7 7 7 7 6 6 7 7 7 6 6 6 6 6 6 6 6 6 6 6 6 6 6 6 6 5 5 5 5 5 5 5 4 4 4 4 4 4 4 4 4 4
9 8 8 7 7 7 7 7 7 7 7 7 7 7 7 7 7 7 7 7 7 7 7 6 6 6 6 7 7 7 6 6 6 6 6 6 6 6 6 6 6 6 6 6 6 6 6 5 5 5 5 5 5 5 4 4 4 4 5 5 4 5 5
7 7 7 7 7 7 7 7 7 7 7 7 7 7 7 7 6 6 6 6 7 7 7 6 6 6 6 7 6 6 6 6 6 6 6 6 6 6 6 6 6 6 6 6 6 6 6 5 5 5 5 5 5 5 4 4 5 4 5 5 5 4 5
7 7 7 7 7 7 7 7 7 7 6 6 6 6 7 6 6 6 6 6 7 7 6 6 6 6 6 6 6 6 6 6 6 6 6 6 6 6 6 6 6 6 6 6 6 6 5 5 5 5 5 5 5 5 5 5 5 5 5 5 5 5 5
6 6 7 6 7 7 7 7 7 6 6 6 6 6 6 5 5 6 6 6 6 6 6 6 6 6 6 6 6 6 5 5 6 6 6 6 5 6 6 6 6 6 6 6 6 5 5 5 5 5 5 5 5 5 5 5 5 5 5 5 5 5 5
6 6 6 6 6 7 6 6 6 6 6 6 5 5 5 5 5 6 5 5 6 6 6 6 6 6 6 6 6 5 5 5 5 5 6 6 5 6 6 6 6 6 6 6 6 5 5 5 5 5 5 5 5 5 5 5 5 5 5 5 5 5 5
5 5 6 6 6 6 6 6 6 6 6 5 5 5 5 5 6 6 5 5 6 6 6 6 6 6 6 6 6 6 5 5 5 5 6 6 5 6 5 5 6 6 5 6 6 5 5 5 5 5 5 5 5 5 5 5 6 5 5 5 5 5 5
5 5 5 5 5 5 5 6 6 5 5 5 4 5 5 5 6 6 5 5 5 5 6 6 6 6 6 6 6 6 6 5 5 5 5 6 6 6 5 5 6 5 6 6 5 5 5 5 5 6 5 5 5 5 5 6 6 6 6 6 5 5 5
5 5 5 5 5 5 5 6 6 6 5 5 5 5 5 5 6 5 5 5 5 5 6 6 6 6 6 6 6 6 6 6 5 5 5 6 5 6 6 6 6 6 5 6 6 5 5 6 5 6 5 5 5 5 6 6 6 6 6 6 5 6 6
Wind_Speed
108 108 108 109 109 109 109 110 110 110 111 110 110 109 109 108 108 108 108 107 107 107 107 108 108 108 109 108 108 107 108 107 107 106 106 106 106 107 107 107 106 105 104 105 107 107 109 111 112 113 113 113 112 112 113 113 113 112 111 111 112 112 113
106 106 107 107 107 107 107 108 108 108 109 108 108 107 107 107 106 106 106 105 105 106 106 106 106 106 106 105 105 105 105 105 104 103 103 103 103 104 104 104 104 103 102 102 103 104 106 108 110 110 110 111 111 110 111 112 112 111 110 110 110 112 113
105 105 105 105 105 105 106 106 106 106 106 106 105 105 105 104 104 103 103 102 102 103 103 103 103 102 102 101 100 100 100 100 99 99 99 99 100 100 100 100 101 100 99 99 100 101 103 105 107 107 108 108 109 109 109 110 111 110 109 108 108 110 111
104 104 104 104 104 104 104 104 104 104 104 103 103 102 102 101 101 100 99 99 99 99 99 99 98 98 97 96 95 95 95 94 94 94 94 94 95 95 95 96 96 96 96 96 96 97 99 101 103 104 105 105 106 106 107 108 108 108 107 107 107 107 109
103 103 103 103 102 102 102 102 102 102 102 101 101 100 99 99 98 97 96 96 96 96 96 95 94 94 93 92 91 90 90 89 89 89 89 89 89 90 90 91 91 92 92 92 91 93 95 97 99 100 101 102 102 102 103 104 105 106 106 106 106 106 107
102 102 101 101 101 101 101 101 101 101 100 99 98 98 97 96 95 94 94 94 94 93 93 92 91 91 90 89 88 88 87 87 87 87 87 87 86 86 86 87 87 88 88 88 88 89 91 93 95 97 97 98 98 98 99 99 100 102 103 104 104 105 105
100 100 100 100 100 101 101 100 100 99 98 97 97 96 95 94 93 92 92 92 91 91 91 90 89 89 88 88 87 87 86 86 87 86 86 86 85 85 85 85 85 86 85 85 85 86 87 89 91 92 94 94 95 95 95 95 96 98 99 100 102 103 104
99 98 99 99 99 99 99 98 98 97 96 95 95 94 93 91 91 90 90 90 90 90 90 89 89 88 88 88 87 87 86 86 86 86 85 86 85 85 85 84 84 84 84 84 83 83 84 86 87 89 90 91 92 92 92 92 93 95 96 97 98 100 101
97 97 98 98 98 97 97 96 96 95 94 94 93 91 90 89 88 88 88 88 89 89 90 89 89 89 89 88 87 87 86 87 86 86 85 86 85 85 85 85 85 84 83 83 82 82 82 83 85 87 88 88 89 89 90 91 91 92 94 94 94 95 97
96 97 97 97 96 96 96 95 94 93 93 92 91 89 88 87 87 87 87 88 88 89 89 89 89 89 89 88 87 87 87 86 86 86 86 85 85 85 86 85 85 84 84 83 82 81 81 82 84 85 86 86 86 87 88 89 90 90 91 91 91 93 94
96 96 96 96 96 95 95 94 93 92 91 90 88 87 86 86 86 86 87 88 88 89 89 89 89 89 88 88 87 87 87 86 86 86 86 85 85 85 86 86 85 84 84 83 82 81 81 82 83 84 84 84 84 85 86 87 88 88 89 88 88 90 92
96 96 96 95 95 94 94 93 92 91 90 88 87 86 85 85 85 86 87 88 88 89 89 89 89 89 88 88 88 87 87 86 86 86 85 85 85 85 85 85 84 84 83 83 82 81 81 81 81 82 83 83 82 83 84 85 86 87 87 86 86 88 91
96 96 95 94 94 93 93 92 91 89 88 87 86 85 85 84 84 85 86 87 88 88 88 89 88 88 88 89 88 88 87 86 86 85 85 84 84 83 83 83 83 82 82 81 81 81 81 81 80 81 81 81 80 81 83 84 85 85 85 85 85 87 89
96 95 94 93 93 92 91 90 89 88 87 86 86 85 85 84 84 85 85 86 87 87 87 88 87 88 88 88 89 88 87 86 86 85 85 84 83 83 82 82 81 80 79 79 79 79 80 80 80 80 79 79 78 79 81 83 83 83 83 84 85 86 87
96 95 94 93 92 91 90 88 87 87 86 86 85 85 84 84 84 84 85 86 86 87 87 86 87 87 87 87 88 87 86 86 86 85 84 83 83 83 83 82 79 77 77 77 77 77 78 78 79 78 77 77 77 78 80 81 80 80 81 82 84 85 86
95 94 93 92 91 89 88 87 86 86 85 85 85 85 84 84 84 84 84 85 86 86 86 86 86 86 86 86 87 86 86 85 85 84 83 83 83 83 83 81 78 76 75 76 76 76 76 76 77 76 76 76 77 78 78 78 78 78 79 80 82 83 84
94 93 91 90 89 87 85 85 85 85 85 85 85 84 83 83 83 84 84 85 85 85 85 85 85 85 84 85 85 85 85 84 83 82 81 82 83 82 82 79 76 75 75 74 74 74 74 74 75 74 74 75 76 77 77 76 75 75 76 77 79 81 82
91 90 89 87 86 85 84 84 85 85 85 85 85 84 83 83 83 83 84 85 85 85 85 85 85 84 83 83 83 83 83 82 80 79 79 81 82 81 80 78 75 74 73 73 73 73 72 72 72 72 73 73 74 75 75 75 74 74 74 74 76 77 79
88 87 86 85 84 83 83 83 84 85 85 85 84 83 82 82 82 83 84 84 85 85 85 85 84 82 81 80 80 80 80 79 77 76 77 78 79 78 78 77 74 72 71 71 71 71 71 70 70 70 71 72 72 72 73 73 72 72 72 72 73 74 75
85 84 84 84 83 83 83 83 84 84 84 84 84 83 82 82 82 82 83 84 84 84 84 84 82 80 78 78 78 77 77 76 74 73 75 76 76 76 76 74 72 71 70 69 68 69 69 69 68 68 69 70 70 70 70 70 71 71 71 71 71 71 72
83 83 82 82 83 83 83 83 83 83 83 83 83 83 83 82 81 82 83 83 83 83 83 82 80 78 77 76 76 75 75 74 72 71 73 73 73 75 75 73 71 70 69 68 67 67 67 67 67 67 67 67 68 67 67 68 69 69 69 69 69 69 70
82 81 82 82 83 83 83 83 82 82 82 83 83 83 83 82 81 82 82 81 81 82 81 80 78 77 76 75 75 74 73 73 71 70 71 71 72 73 73 72 70 69 68 67 66 65 65 65 65 65 65 65 65 64 65 66 66 67 67 67 67 67 68
81 81 81 82 83 83 83 82 82 82 82 83 83 83 83 82 82 81 80 79 79 80 80 79 77 76 75 75 74 72 72 72 71 70 70 70 70 70 71 70 69 68 67 66 65 64 63 63 63 63 63 63 62 62 63 63 64 65 65 65 65 66 66
81 81 81 82 83 83 83 82 82 82 83 82 82 82 82 82 81 79 78 77 78 78 78 78 77 76 75 74 72 71 71 71 70 69 68 68 68 68 68 68 67 67 66 65 64 63 62 62 62 62 62 61 60 60 61 61 62 63 63 63 64 64 64
81 81 81 82 83 84 84 83 82 82 82 82 81 81 81 81 80 78 77 76 76 77 77 76 76 75 74 73 71 70 70 70 69 68 67 66 66 66 66 66 65 65 65 64 63 62 61 61 61 60 60 59 59 58 59 60 60 60 61 62 62 61 62
82 82 82 83 83 84 84 83 83 82 81 80 80 80 80 79 78 77 76 76 76 76 75 75 74 74 73 71 70 69 68 68 68 67 66 65 64 64 64 63 63 64 64 63 62 61 60 59 59 59 59 58 57 57 57 58 58 58 59 60 60 59 59
82 83 83 83 84 84 84 83 83 82 80 79 79 79 79 78 77 77 76 75 75 74 73 73 73 72 71 70 68 68 67 67 67 66 65 64 63 62 62 62 62 62 62 62 61 60 59 59 58 58 57 57 56 56 56 56 55 56 57 58 58 58 57
83 83 84 83 83 83 83 82 82 81 80 79 79 78 77 76 76 76 75 74 74 73 72 72 71 70 69 68 67 67 67 66 65 65 64 63 62 60 60 60 60 60 60 60 60 59 58 58 57 56 56 55 55 54 54 54 53 53 54 55 56 56 55
83 83 83 83 82 82 81 81 81 80 79 78 78 77 76 75 75 75 74 73 72 72 71 71 70 69 68 67 67 67 66 65 64 63 63 62 61 60 59 59 59 59 58 58 58 58 57 56 56 55 54 53 53 53 52 52 52 52 52 52 53 53 53
82 82 82 82 81 80 80 80 80 79 78 78 77 75 75 75 74 73 72 71 71 70 71 70 69 68 67 66 66 66 65 63 63 63 62 61 59 58 58 57 58 58 57 57 57 57 56 55 54 53 52 52 51 51 51 51 50 50 50 50 51 51 51
82 81 80 80 80 79 79 78 79 79 78 77 76 74 74 74 73 72 70 70 70 70 70 69 68 67 66 66 65 64 63 62 62 61 61 59 58 57 57 56 56 56 56 55 55 55 54 53 52 51 51 50 50 49 49 49 49 48 48 49 49 49 49
81 80 79 79 79 79 78 78 78 78 78 76 75 74 73 72 71 70 69 69 68 68 68 67 66 66 65 64 64 63 62 61 60 60 59 58 57 56 56 55 55 55 54 53 53 53 53 52 51 50 49 49 48 48 48 47 47 47 47 47 47 47 47
80 79 78 78 78 78 77 77 76 76 77 76 74 72 71 70 70 70 69 68 66 67 67 65 64 64 64 63 62 62 61 59 58 58 58 57 56 54 54 54 54 53 53 52 51 51 51 50 49 48 48 48 47 47 46 45 45 45 45 45 45 45 45
79 77 77 77 77 76 76 76 76 76 76 75 73 70 69 69 69 69 68 67 65 65 65 64 63 62 61 61 61 61 60 59 57 56 55 55 54 53 53 52 52 52 51 50 50 50 50 49 48 47 47 46 46 45 44 43 43 43 43 43 43 43 44
78 76 75 75 76 75 75 74 75 76 76 74 72 69 68 68 68 68 67 66 65 64 63 63 62 60 59 59 59 59 58 57 56 55 53 53 52 52 51 51 51 50 49 49 49 49 48 47 46 46 45 45 44 44 42 41 41 41 42 42 42 42 42
78 76 74 73 73 74 74 74 75 75 75 73 71 69 67 67 67 67 66 65 64 62 61 61 61 59 58 58 57 57 57 56 55 54 53 51 51 50 50 49 49 48 48 47 48 47 46 46 45 44 44 43 43 42 41 40 40 40 40 41 40 40 41
Wind_Direction
283 283 283 283 283 284 284 284 284 284 284 285 285 285 284 284 284 283 283 282 282 282 281 280 280 279 279 279 278 278 277 277 276 276 275 275 274 274 273 272 272 271 270 269 269 268 267 267 267 266 266 265 264 263 263 262 260 259 258 257 256 255 254
283 283 283 284 284 284 285 285 285 285 285 285 285 285 285 284 284 283 283 283 282 281 281 280 279 279 279 278 278 278 277 277 276 276 276 275 275 274 274 273 272 272 271 270 269 268 267 266 266 265 265 265 264 263 263 262 261 260 258 257 256 256 255
284 284 285 285 285 285 286 285 285 285 285 285 285 285 284 284 284 284 283 283 282 282 281 280 280 279 279 278 278 277 277 277 277 276 276 275 274 274 273 273 273 272 271 270 269 268 267 266 266 265 264 264 263 263 262 262 261 260 259 258 257 256 255
285 285 286 286 286 286 286 285 285 285 285 285 285 285 285 285 285 284 284 284 283 282 282 281 281 280 280 279 279 278 278 278 277 276 276 275 274 274 273 273 272 272 271 270 269 269 268 267 266 266 264 263 263 262 262 261 261 261 260 259 257 256 256
286 286 286 287 287 287 287 286 286 286 286 286 286 286 286 286 286 286 285 285 284 283 283 282 282 281 281 280 280 280 279 279 278 277 276 276 275 274 274 273 272 272 271 270 269 269 268 268 267 266 266 265 263 262 262 261 261 260 260 259 258 257 256
286 287 287 288 288 287 287 287 287 287 287 287 287 287 287 287 287 287 286 286 285 284 284 283 283 283 282 282 282 281 281 280 280 279 278 277 276 275 274 274 273 272 271 271 270 269 268 268 268 267 267 266 265 264 262 261 260 260 259 258 258 257 256
287 288 288 288 288 288 288 288 288 288 288 288 288 288 288 288 288 287 287 286 286 285 285 284 284 284 283 283 283 283 282 282 281 280 280 279 278 277 276 275 274 273 271 271 270 269 268 268 268 268 267 267 266 265 263 262 261 260 258 257 257 256 255
288 288 288 288 288 288 288 288 288 289 289 289 288 288 288 288 288 287 287 286 286 286 285 285 285 285 285 284 284 284 283 283 282 282 281 280 279 278 277 276 275 274 273 271 270 270 269 268 268 267 267 266 266 265 264 263 261 260 259 257 256 256 256
289 289 289 289 289 289 289 289 289 289 289 289 289 289 289 288 288 287 287 287 286 286 286 286 286 286 285 285 285 285 284 284 283 282 282 281 280 279 278 277 276 275 274 273 272 271 270 269 268 268 267 266 266 265 265 263 262 260 259 258 257 256 255
290 290 290 290 290 290 290 290 290 290 289 289 289 289 289 288 288 287 287 287 287 287 287 287 287 286 286 286 286 285 285 284 284 283 282 282 281 280 279 278 277 277 276 274 273 272 270 269 268 268 267 266 266 265 264 264 262 261 260 259 258 257 256
291 291 291 291 291 291 291 291 291 290 290 290 289 289 288 288 288 288 288 288 287 287 287 287 287 287 286 286 286 285 284 284 283 282 282 281 280 280 279 278 278 277 276 275 274 273 271 270 269 268 267 266 266 265 264 264 263 262 261 260 259 258 257
292 292 292 292 292 292 292 291 291 291 290 290 289 289 289 289 289 288 288 288 288 288 287 287 287 287 286 286 285 284 283 283 282 282 281 280 279 279 278 278 277 277 276 275 274 273 272 270 269 268 267 266 266 265 265 264 263 262 262 261 260 259 258
293 293 293 293 293 292 292 291 291 291 290 290 289 289 289 289 289 288 288 288 287 287 287 287 287 287 286 286 285 284 284 283 283 282 281 280 279 279 278 277 277 276 275 275 274 274 273 271 270 269 267 266 266 265 264 263 263 262 262 261 260 259 259
293 293 293 293 292 292 291 291 291 290 290 289 289 289 289 289 289 288 287 287 286 286 286 286 286 286 285 285 285 284 284 284 283 282 282 281 280 280 278 277 276 276 275 275 274 274 273 272 271 269 268 267 266 265 264 263 263 262 262 261 260 259 259
294 293 293 293 292 291 291 291 290 290 289 289 289 289 289 289 288 287 286 286 285 285 285 285 285 285 285 284 284 284 284 284 283 283 282 282 281 280 279 278 277 276 276 275 274 273 273 272 271 271 270 268 267 265 264 263 262 262 261 261 260 260 259
293 293 292 292 291 291 290 290 289 289 289 289 288 288 288 288 287 286 286 285 285 285 285 285 284 284 284 284 284 284 284 284 283 283 283 282 281 280 279 278 278 277 277 275 274 273 273 272 272 271 270 269 268 266 265 264 263 262 261 260 260 260 259
292 292 291 291 290 290 290 289 289 288 288 288 288 288 287 287 286 286 286 285 285 285 285 284 284 284 284 284 284 284 284 283 283 283 283 282 281 280 279 279 279 278 277 276 275 274 273 272 272 271 271 270 269 268 266 265 264 262 261 260 260 259 259
291 290 290 290 289 289 289 288 288 288 288 287 287 287 287 287 287 286 286 286 286 285 285 285 284 284 284 284 284 283 283 283 283 283 282 281 280 280 280 280 279 278 277 277 276 275 274 273 272 272 271 270 269 268 268 266 265 264 262 261 260 259 259
290 290 289 289 289 288 288 288 287 287 287 287 287 287 287 287 287 287 287 286 286 286 285 285 285 285 284 284 283 283 283 282 283 283 282 281 280 281 280 280 280 279 278 277 276 276 275 274 273 272 271 270 269 268 268 267 266 265 263 261 260 259 259
289 289 289 288 288 288 287 287 287 287 288 288 288 288 287 287 287 287 287 287 287 286 286 286 285 285 285 284 284 283 283 283 283 283 282 281 281 281 280 280 280 280 278 277 277 276 275 274 273 272 271 270 269 268 268 267 266 265 264 262 261 260 259
289 289 288 288 288 287 287 287 288 288 288 288 288 288 288 288 288 287 287 287 287 287 287 286 286 286 286 285 284 284 284 284 284 283 282 282 282 281 281 281 281 280 279 278 277 276 275 274 273 272 271 270 269 268 268 267 266 265 264 263 262 261 259
289 288 288 288 288 288 288 288 289 289 289 289 288 288 289 288 288 287 287 288 288 288 287 287 287 287 287 286 285 285 285 285 284 284 283 282 282 282 282 282 281 280 280 279 278 276 275 274 273 272 271 270 269 269 268 267 266 265 265 264 263 261 260
289 289 289 289 289 289 289 289 289 289 289 289 289 289 289 289 288 288 288 288 288 288 287 287 288 287 287 286 286 286 286 285 284 284 283 282 282 282 282 282 282 281 280 279 278 277 276 275 274 273 272 271 270 269 268 267 267 266 265 264 263 262 261
290 290 290 290 290 289 289 290 290 289 289 289 289 290 289 289 288 288 289 289 288 288 288 288 288 287 287 286 286 286 285 285 284 284 283 282 282 282 282 282 282 281 280 279 278 277 276 275 274 273 272 272 271 270 269 268 267 266 265 264 263 262 261
291 291 291 290 290 290 290 290 290 290 289 290 290 290 289 289 289 289 289 289 288 288 288 288 288 287 286 286 286 286 285 284 284 283 283 282 282 282 282 281 281 281 280 279 278 278 277 276 275 274 273 272 271 270 269 268 267 266 265 264 263 262 260
291 291 291 290 290 290 291 290 290 290 290 290 290 290 289 289 289 289 289 288 288 287 287 287 286 286 286 286 285 285 284 284 283 283 282 282 282 281 281 281 281 280 280 279 278 278 277 276 275 274 274 273 272 270 269 268 267 266 265 264 263 262 260
292 292 291 291 291 291 291 291 291 291 291 291 290 289 289 289 289 289 289 288 287 287 286 286 285 285 285 285 285 284 284 283 283 283 282 282 281 281 281 280 280 279 279 279 278 278 277 276 275 275 274 273 272 271 269 268 266 265 265 264 264 262 260
292 292 292 292 292 291 291 291 291 291 291 290 290 289 289 289 289 288 288 287 287 286 286 285 285 285 285 285 285 284 283 283 282 282 282 281 281 281 280 279 279 278 278 278 278 277 277 276 275 275 274 273 272 271 270 268 267 265 264 264 263 262 261
293 292 292 292 291 291 291 291 291 291 290 290 289 289 289 289 288 287 287 287 287 287 286 285 285 285 285 285 284 283 283 283 282 282 281 281 281 280 280 279 279 278 278 278 277 277 276 276 275 275 274 273 272 271 270 269 268 266 265 263 262 262 261
292 292 292 291 291 291 291 291 290 290 289 289 289 289 289 288 287 287 287 287 287 286 285 285 285 285 285 284 283 283 283 283 282 282 281 281 281 280 280 279 278 278 278 277 277 277 276 276 275 275 274 273 272 271 270 269 268 267 265 263 262 261 260
292 291 291 291 291 291 291 290 290 289 289 289 289 288 287 287 287 287 287 287 286 286 285 285 285 285 284 284 283 283 282 282 282 281 281 281 280 280 279 279 278 278 277 277 276 276 276 276 275 275 274 273 272 271 270 269 268 267 265 264 262 262 260
292 292 292 291 291 291 290 290 289 289 289 288 288 287 287 287 287 287 287 286 286 285 285 285 285 284 284 284 283 283 282 282 281 281 281 280 280 280 279 278 278 277 277 277 276 276 276 275 275 274 274 273 272 271 270 269 267 266 265 264 262 261 260
292 292 292 291 291 290 290 289 289 288 288 287 287 287 288 288 288 287 286 286 286 285 285 285 284 284 284 283 283 282 282 282 281 281 280 280 280 279 278 278 277 277 277 277 276 276 275 275 275 274 273 272 272 270 269 268 266 265 264 263 262 261 260
292 291 291 291 290 290 290 290 289 288 288 287 288 288 289 288 288 287 287 287 286 285 285 284 284 283 283 283 282 282 282 281 281 280 279 279 279 279 278 278 277 277 277 276 276 275 275 275 274 274 273 272 271 270 268 267 265 264 264 263 261 260 260
291 291 291 291 290 290 290 290 289 288 288 288 289 289 289 288 288 287 287 287 286 285 285 284 284 283 282 282 281 281 281 281 281 280 279 278 278 278 277 277 277 276 276 275 275 275 274 274 274 273 272 271 270 269 268 266 265 264 263 262 261 260 260
291 291 291 291 291 291 291 290 289 289 289 289 290 290 289 288 287 287 286 286 285 285 284 284 284 283 282 281 281 280 280 280 280 280 279 278 278 277 277 277 276 276 275 275 274 274 274 274 273 272 271 270 269 268 267 266 264 263 263 262 261 260 260